Time,TemperatureF,DewpointF,PressureIn,WindDirection,WindDirectionDegrees,WindSpeedMPH,WindSpeedGustMPH,Humidity,HourlyPrecipIn,Conditions,Clouds,dailyrainin,SoftwareType,DateUTC
2013-12-08 00:03:00,47.1,15.4,30.24,NNW,337,4.9,11.3,28,0.00,,SCT,0.00,WUHU21623XXSP,2013-12-07 22:03:00,
2013-12-08 00:08:00,47.1,15.4,30.23,ESE,112,1.0,11.3,28,0.00,,SCT,0.00,WUHU21623XXSP,2013-12-07 22:08:00,
2013-12-08 00:46:00,46.9,15.3,30.24,North,0,0.0,0.0,28,0.00,,SCT,0.00,WUHU21623XXSP,2013-12-07 22:46:00,
2013-12-08 01:46:00,45.5,14.1,30.25,NNW,338,2.0,2.0,28,0.00,,SCT,0.00,WUHU21623XXSP,2013-12-07 23:46:00,
2013-12-08 02:46:00,44.2,12.9,30.27,NNE,23,0.0,0.0,28,0.00,,SCT,0.00,WUHU21623XXSP,2013-12-08 00:46:00,
2013-12-08 03:46:00,44.2,18.0,30.27,SSW,203,0.0,0.0,35,0.00,,SCT,0.00,WUHU21623XXSP,2013-12-08 01:46:00,
2013-12-08 04:46:00,44.2,23.5,30.27,SSW,203,0.0,0.0,44,0.00,,SCT,0.00,WUHU21623XXSP,2013-12-08 02:46:00,
2013-12-08 05:46:00,44.2,20.0,30.29,NW,315,0.0,0.0,38,0.00,,SCT,0.00,WUHU21623XXSP,2013-12-08 03:46:00,
2013-12-08 06:46:00,43.9,12.7,30.29,North,0,0.0,0.0,28,0.00,,SCT,0.00,WUHU21623XXSP,2013-12-08 04:46:00,
2013-12-08 07:34:00,42.4,11.4,30.31,South,180,0.0,0.0,28,0.00,,FEW,0.00,WUHU21623XXSP,2013-12-08 05:34:00,
2013-12-08 07:39:00,41.9,13.2,30.31,South,180,0.0,1.4,31,0.00,,SKC,0.00,WUHU21623XXSP,2013-12-08 05:39:00,
2013-12-08 07:44:00,41.9,15.3,30.31,SE,135,0.0,1.4,34,0.00,,SKC,0.00,WUHU21623XXSP,2013-12-08 05:44:00,
2013-12-08 07:49:00,41.2,14.0,30.31,SE,135,0.0,0.0,33,0.00,,SKC,0.00,WUHU21623XXSP,2013-12-08 05:49:00,
2013-12-08 07:54:00,41.2,17.9,30.31,SE,135,0.0,2.2,39,0.00,,SKC,0.00,WUHU21623XXSP,2013-12-08 05:54:00,
2013-12-08 07:59:00,41.2,17.9,30.32,SE,135,0.0,2.2,39,0.00,,SKC,0.00,WUHU21623XXSP,2013-12-08 05:59:00,
2013-12-08 08:04:00,41.2,17.9,30.32,SSE,157,0.0,2.0,39,0.00,,SKC,0.00,WUHU21623XXSP,2013-12-08 06:04:00,
2013-12-08 08:09:00,41.4,17.5,30.32,SE,135,0.0,0.0,38,0.00,,SKC,0.00,WUHU21623XXSP,2013-12-08 06:09:00,
2013-12-08 08:14:00,41.9,16.6,30.32,SE,135,0.0,0.0,36,0.00,,SKC,0.00,WUHU21623XXSP,2013-12-08 06:14:00,
2013-12-08 08:19:00,42.4,19.0,30.32,South,180,0.0,1.0,39,0.00,,SKC,0.00,WUHU21623XXSP,2013-12-08 06:19:00,
2013-12-08 08:24:00,43.2,17.8,30.33,South,180,0.0,1.0,36,0.00,,SKC,0.00,WUHU21623XXSP,2013-12-08 06:24:00,
2013-12-08 08:29:00,43.7,16.9,30.33,SE,135,0.0,1.4,34,0.00,,SKC,0.00,WUHU21623XXSP,2013-12-08 06:29:00,
2013-12-08 08:34:00,44.2,12.9,30.33,SSE,157,1.8,2.4,28,0.00,,SKC,0.00,WUHU21623XXSP,2013-12-08 06:34:00,
2013-12-08 08:39:00,44.8,13.5,30.33,SSE,157,0.0,2.8,28,0.00,,SKC,0.00,WUHU21623XXSP,2013-12-08 06:39:00,
2013-12-08 08:44:00,45.3,13.9,30.33,SE,135,2.4,7.2,28,0.00,,SKC,0.00,WUHU21623XXSP,2013-12-08 06:44:00,
2013-12-08 08:49:00,46.0,14.5,30.33,ESE,112,0.0,7.2,28,0.00,,SKC,0.00,WUHU21623XXSP,2013-12-08 06:49:00,
2013-12-08 08:54:00,46.6,15.0,30.33,South,180,1.4,5.6,28,0.00,,SKC,0.00,WUHU21623XXSP,2013-12-08 06:54:00,
2013-12-08 08:59:00,46.8,15.2,30.33,SSW,202,3.0,4.9,28,0.00,,SKC,0.00,WUHU21623XXSP,2013-12-08 06:59:00,
2013-12-08 09:04:00,46.9,15.3,30.34,WSW,247,0.0,6.4,28,0.00,,SKC,0.00,WUHU21623XXSP,2013-12-08 07:04:00,
2013-12-08 09:09:00,47.1,15.4,30.34,South,180,0.0,6.4,28,0.00,,SKC,0.00,WUHU21623XXSP,2013-12-08 07:09:00,
2013-12-08 09:14:00,47.3,15.6,30.34,South,180,3.0,5.6,28,0.00,,SKC,0.00,WUHU21623XXSP,2013-12-08 07:14:00,
2013-12-08 09:19:00,47.7,16.0,30.35,ESE,112,0.0,5.6,28,0.00,,SKC,0.00,WUHU21623XXSP,2013-12-08 07:19:00,
2013-12-08 09:24:00,47.8,16.0,30.34,SE,135,1.8,3.4,28,0.00,,SKC,0.00,WUHU21623XXSP,2013-12-08 07:24:00,
2013-12-08 09:29:00,48.2,16.4,30.35,ESE,112,2.4,3.7,28,0.00,,SKC,0.00,WUHU21623XXSP,2013-12-08 07:29:00,
2013-12-08 09:34:00,48.6,16.7,30.35,SSE,157,0.0,4.2,28,0.00,,SKC,0.00,WUHU21623XXSP,2013-12-08 07:34:00,
2013-12-08 09:39:00,48.9,17.0,30.35,SSW,202,0.0,4.2,28,0.00,,SKC,0.00,WUHU21623XXSP,2013-12-08 07:39:00,
2013-12-08 09:44:00,48.9,17.0,30.35,SSW,202,0.0,1.4,28,0.00,,SKC,0.00,WUHU21623XXSP,2013-12-08 07:44:00,
2013-12-08 09:49:00,48.9,17.0,30.36,NNE,22,0.0,1.2,28,0.00,,SKC,0.00,WUHU21623XXSP,2013-12-08 07:49:00,
2013-12-08 09:54:00,49.1,17.2,30.36,East,90,0.0,2.2,28,0.00,,SKC,0.00,WUHU21623XXSP,2013-12-08 07:54:00,
2013-12-08 09:59:00,48.9,17.0,30.36,SSE,157,0.0,2.2,28,0.00,,SKC,0.00,WUHU21623XXSP,2013-12-08 07:59:00,
2013-12-08 10:04:00,48.9,18.6,30.36,SW,225,0.0,2.8,30,0.00,,SKC,0.00,WUHU21623XXSP,2013-12-08 08:04:00,
2013-12-08 10:09:00,49.5,19.9,30.36,SSW,202,4.9,5.6,31,0.00,,SKC,0.00,WUHU21623XXSP,2013-12-08 08:09:00,
2013-12-08 10:14:00,49.6,20.0,30.36,ESE,112,0.0,5.6,31,0.00,,SKC,0.00,WUHU21623XXSP,2013-12-08 08:14:00,
2013-12-08 10:19:00,50.2,19.7,30.36,SW,225,1.8,4.2,30,0.00,,SKC,0.00,WUHU21623XXSP,2013-12-08 08:19:00,
2013-12-08 10:24:00,50.4,19.9,30.36,WSW,247,3.4,6.4,30,0.00,,SKC,0.00,WUHU21623XXSP,2013-12-08 08:24:00,
2013-12-08 10:29:00,50.7,19.4,30.37,NNW,337,0.0,6.4,29,0.00,,SKC,0.00,WUHU21623XXSP,2013-12-08 08:29:00,
2013-12-08 10:46:00,51.8,20.3,30.37,NNW,338,0.0,0.0,29,0.00,,SKC,0.00,WUHU21623XXSP,2013-12-08 08:46:00,
2013-12-08 11:46:00,52.7,20.3,30.36,NNW,338,2.2,2.2,28,0.00,,SKC,0.00,WUHU21623XXSP,2013-12-08 09:46:00,
2013-12-08 12:46:00,52.9,20.5,30.35,NNW,338,3.4,3.4,28,0.00,,SKC,0.00,WUHU21623XXSP,2013-12-08 10:46:00,
2013-12-08 13:46:00,52.2,19.9,30.34,SW,225,2.8,2.8,28,0.00,,SKC,0.00,WUHU21623XXSP,2013-12-08 11:46:00,
2013-12-08 14:46:00,52.5,20.1,30.34,North,0,6.4,6.4,28,0.00,,SKC,0.00,WUHU21623XXSP,2013-12-08 12:46:00,
2013-12-08 15:00:00,52.9,20.5,30.33,NNW,337,3.4,3.4,28,0.00,,SKC,0.00,WUHU21623XXSP,2013-12-08 13:00:00,
2013-12-08 15:05:00,52.9,20.5,30.33,WSW,247,3.2,9.6,28,0.00,,SKC,0.00,WUHU21623XXSP,2013-12-08 13:05:00,
2013-12-08 15:10:00,52.7,20.3,30.33,WNW,292,6.9,9.6,28,0.00,,SKC,0.00,WUHU21623XXSP,2013-12-08 13:10:00,
2013-12-08 15:15:00,52.7,20.3,30.33,NNW,337,5.9,14.3,28,0.00,,SKC,0.00,WUHU21623XXSP,2013-12-08 13:15:00,
2013-12-08 15:20:00,52.7,20.3,30.33,North,0,6.2,14.3,28,0.00,,SKC,0.00,WUHU21623XXSP,2013-12-08 13:20:00,
2013-12-08 15:25:00,52.5,20.1,30.33,North,0,7.6,11.3,28,0.00,,SKC,0.00,WUHU21623XXSP,2013-12-08 13:25:00,
2013-12-08 15:30:00,52.7,20.3,30.33,NW,315,6.9,14.5,28,0.00,,SKC,0.00,WUHU21623XXSP,2013-12-08 13:30:00,
2013-12-08 15:35:00,52.5,20.1,30.33,WNW,292,0.0,14.5,28,0.00,,SKC,0.00,WUHU21623XXSP,2013-12-08 13:35:00,
2013-12-08 15:40:00,52.5,20.1,30.33,WNW,292,8.6,9.8,28,0.00,,SKC,0.00,WUHU21623XXSP,2013-12-08 13:40:00,
2013-12-08 15:45:00,53.1,20.6,30.34,North,0,3.0,8.6,28,0.00,,SKC,0.00,WUHU21623XXSP,2013-12-08 13:45:00,
2013-12-08 15:50:00,52.7,20.3,30.34,NNW,337,1.8,8.1,28,0.00,,SKC,0.00,WUHU21623XXSP,2013-12-08 13:50:00,
2013-12-08 15:55:00,52.7,20.3,30.34,North,0,0.0,8.1,28,0.00,,SKC,0.00,WUHU21623XXSP,2013-12-08 13:55:00,
2013-12-08 16:00:00,52.7,20.3,30.34,North,0,2.4,8.1,28,0.00,,SKC,0.00,WUHU21623XXSP,2013-12-08 14:00:00,
2013-12-08 16:06:00,52.7,20.3,30.34,WNW,292,0.0,4.9,28,0.00,,SKC,0.00,WUHU21623XXSP,2013-12-08 14:06:00,
2013-12-08 16:11:00,52.7,20.3,30.34,ENE,67,0.0,4.2,28,0.00,,SKC,0.00,WUHU21623XXSP,2013-12-08 14:11:00,
2013-12-08 16:16:00,52.5,20.1,30.34,East,90,4.0,5.6,28,0.00,,SKC,0.00,WUHU21623XXSP,2013-12-08 14:16:00,
2013-12-08 16:21:00,52.5,20.1,30.34,NE,45,3.4,7.6,28,0.00,,SKC,0.00,WUHU21623XXSP,2013-12-08 14:21:00,
2013-12-08 16:26:00,52.3,19.9,30.34,North,0,2.2,7.6,28,0.00,,SKC,0.00,WUHU21623XXSP,2013-12-08 14:26:00,
2013-12-08 16:31:00,52.3,19.9,30.34,NNE,22,3.7,6.6,28,0.00,,SKC,0.00,WUHU21623XXSP,2013-12-08 14:31:00,
2013-12-08 16:36:00,52.2,19.9,30.35,North,0,0.0,4.9,28,0.00,,SKC,0.00,WUHU21623XXSP,2013-12-08 14:36:00,
2013-12-08 16:41:00,51.8,19.5,30.35,NNE,22,3.4,5.2,28,0.00,,SKC,0.00,WUHU21623XXSP,2013-12-08 14:41:00,
2013-12-08 16:46:00,51.8,19.5,30.35,North,0,2.2,5.6,28,0.00,,SKC,0.00,WUHU21623XXSP,2013-12-08 14:46:00,
2013-12-08 16:51:00,51.6,19.3,30.35,NNE,22,0.0,5.6,28,0.00,,SKC,0.00,WUHU21623XXSP,2013-12-08 14:51:00,
2013-12-08 16:56:00,51.3,19.1,30.35,NNE,22,0.0,3.4,28,0.00,,SKC,0.00,WUHU21623XXSP,2013-12-08 14:56:00,
2013-12-08 17:01:00,51.1,18.9,30.35,North,0,0.0,1.8,28,0.00,,SKC,0.00,WUHU21623XXSP,2013-12-08 15:01:00,
2013-12-08 17:06:00,50.7,18.6,30.35,NNE,22,0.0,1.0,28,0.00,,SKC,0.00,WUHU21623XXSP,2013-12-08 15:06:00,
2013-12-08 17:11:00,50.7,18.6,30.35,NE,45,0.0,4.4,28,0.00,,SKC,0.00,WUHU21623XXSP,2013-12-08 15:11:00,
2013-12-08 17:16:00,50.5,18.4,30.35,ENE,67,0.0,4.4,28,0.00,,SKC,0.00,WUHU21623XXSP,2013-12-08 15:16:00,
2013-12-08 17:21:00,50.2,18.1,30.35,NE,45,0.0,0.0,28,0.00,,SKC,0.00,WUHU21623XXSP,2013-12-08 15:21:00,
2013-12-08 17:26:00,50.2,18.1,30.35,NNE,22,0.0,0.8,28,0.00,,SKC,0.00,WUHU21623XXSP,2013-12-08 15:26:00,
2013-12-08 17:31:00,50.2,18.1,30.35,ENE,67,0.0,0.8,28,0.00,,SKC,0.00,WUHU21623XXSP,2013-12-08 15:31:00,
2013-12-08 17:36:00,49.6,17.6,30.35,NNE,22,0.0,0.0,28,0.00,,SKC,0.00,WUHU21623XXSP,2013-12-08 15:36:00,
2013-12-08 17:41:00,49.3,17.3,30.35,NNE,22,0.0,0.0,28,0.00,,SKC,0.00,WUHU21623XXSP,2013-12-08 15:41:00,
2013-12-08 17:46:00,48.9,17.0,30.35,NNE,22,0.0,0.0,28,0.00,,SKC,0.00,WUHU21623XXSP,2013-12-08 15:46:00,
2013-12-08 17:51:00,48.6,16.7,30.35,North,0,0.0,0.0,28,0.00,,SKC,0.00,WUHU21623XXSP,2013-12-08 15:51:00,
2013-12-08 17:56:00,48.4,16.6,30.35,North,0,0.0,0.0,28,0.00,,SKC,0.00,WUHU21623XXSP,2013-12-08 15:56:00,
2013-12-08 18:01:00,48.0,16.2,30.36,North,0,0.0,0.8,28,0.00,,SKC,0.00,WUHU21623XXSP,2013-12-08 16:01:00,
2013-12-08 18:06:00,47.7,16.0,30.36,NNE,22,0.0,0.8,28,0.00,,SKC,0.00,WUHU21623XXSP,2013-12-08 16:06:00,
2013-12-08 18:11:00,47.3,15.6,30.36,North,0,0.0,0.0,28,0.00,,SKC,0.00,WUHU21623XXSP,2013-12-08 16:11:00,
2013-12-08 18:16:00,47.1,15.4,30.36,North,0,0.0,0.0,28,0.00,,SKC,0.00,WUHU21623XXSP,2013-12-08 16:16:00,
2013-12-08 18:21:00,46.9,15.3,30.36,North,0,0.0,0.0,28,0.00,,SKC,0.00,WUHU21623XXSP,2013-12-08 16:21:00,
2013-12-08 18:26:00,46.6,15.0,30.36,North,0,0.0,0.0,28,0.00,,SKC,0.00,WUHU21623XXSP,2013-12-08 16:26:00,
2013-12-08 18:31:00,46.2,14.7,30.36,NNE,22,0.0,0.0,28,0.00,,SKC,0.00,WUHU21623XXSP,2013-12-08 16:31:00,
2013-12-08 18:36:00,46.0,14.5,30.36,NNE,22,0.0,0.0,28,0.00,,SKC,0.00,WUHU21623XXSP,2013-12-08 16:36:00,
2013-12-08 18:41:00,45.5,14.1,30.37,North,0,0.0,0.0,28,0.00,,SKC,0.00,WUHU21623XXSP,2013-12-08 16:41:00,
2013-12-08 18:46:00,45.5,14.1,30.37,North,0,0.0,0.0,28,0.00,,SKC,0.00,WUHU21623XXSP,2013-12-08 16:46:00,
2013-12-08 18:51:00,45.5,14.1,30.37,NNW,337,0.0,0.0,28,0.00,,SKC,0.00,WUHU21623XXSP,2013-12-08 16:51:00,
2013-12-08 18:56:00,45.3,13.9,30.37,North,0,0.0,1.2,28,0.00,,SKC,0.00,WUHU21623XXSP,2013-12-08 16:56:00,
2013-12-08 19:01:00,45.3,13.9,30.37,North,0,0.0,1.2,28,0.00,,SKC,0.00,WUHU21623XXSP,2013-12-08 17:01:00,
2013-12-08 19:06:00,45.3,13.9,30.37,North,0,0.0,1.8,28,0.00,,SKC,0.00,WUHU21623XXSP,2013-12-08 17:06:00,
2013-12-08 19:11:00,45.0,13.6,30.37,NNE,22,1.0,1.8,28,0.00,,SKC,0.00,WUHU21623XXSP,2013-12-08 17:11:00,
2013-12-08 19:16:00,44.8,13.5,30.38,NE,45,0.0,3.7,28,0.00,,SKC,0.00,WUHU21623XXSP,2013-12-08 17:16:00,
2013-12-08 19:21:00,44.4,13.1,30.38,North,0,0.0,3.7,28,0.00,,SKC,0.00,WUHU21623XXSP,2013-12-08 17:21:00,
2013-12-08 19:26:00,44.2,12.9,30.38,NNE,22,0.0,3.0,28,0.00,,SKC,0.00,WUHU21623XXSP,2013-12-08 17:26:00,
2013-12-08 19:31:00,43.9,12.7,30.38,NE,45,0.0,2.8,28,0.00,,SKC,0.00,WUHU21623XXSP,2013-12-08 17:31:00,
2013-12-08 19:36:00,44.1,12.8,30.38,North,0,1.2,2.8,28,0.00,,SKC,0.00,WUHU21623XXSP,2013-12-08 17:36:00,
2013-12-08 19:41:00,43.9,12.7,30.39,North,0,0.0,1.4,28,0.00,,SKC,0.00,WUHU21623XXSP,2013-12-08 17:41:00,
2013-12-08 19:46:00,43.7,12.5,30.39,NNE,22,0.0,2.8,28,0.00,,SKC,0.00,WUHU21623XXSP,2013-12-08 17:46:00,
2013-12-08 19:51:00,43.5,12.3,30.39,WNW,292,0.0,2.8,28,0.00,,SKC,0.00,WUHU21623XXSP,2013-12-08 17:51:00,
2013-12-08 19:56:00,43.5,12.3,30.39,North,0,0.0,1.4,28,0.00,,SKC,0.00,WUHU21623XXSP,2013-12-08 17:56:00,
2013-12-08 20:01:00,43.5,12.3,30.39,North,0,1.4,2.4,28,0.00,,SKC,0.00,WUHU21623XXSP,2013-12-08 18:01:00,
2013-12-08 20:06:00,43.5,12.3,30.40,North,0,0.0,2.8,28,0.00,,SKC,0.00,WUHU21623XXSP,2013-12-08 18:06:00,
2013-12-08 20:11:00,43.5,12.3,30.40,North,0,2.2,2.8,28,0.00,,SKC,0.00,WUHU21623XXSP,2013-12-08 18:11:00,
2013-12-08 20:16:00,43.5,12.3,30.40,NNE,22,0.0,2.4,28,0.00,,SKC,0.00,WUHU21623XXSP,2013-12-08 18:16:00,
2013-12-08 20:21:00,43.5,12.3,30.40,NNW,337,1.0,2.4,28,0.00,,SKC,0.00,WUHU21623XXSP,2013-12-08 18:21:00,
2013-12-08 20:26:00,43.5,12.3,30.40,North,0,0.0,2.0,28,0.00,,SKC,0.00,WUHU21623XXSP,2013-12-08 18:26:00,
2013-12-08 20:31:00,43.5,12.3,30.40,NNW,337,0.8,2.0,28,0.00,,SKC,0.00,WUHU21623XXSP,2013-12-08 18:31:00,
2013-12-08 20:36:00,43.2,12.1,30.40,ENE,67,0.0,1.0,28,0.00,,SKC,0.00,WUHU21623XXSP,2013-12-08 18:36:00,
2013-12-08 20:40:00,43.2,12.1,30.40,NNW,337,0.0,1.0,28,0.00,,SKC,0.00,WUHU21623XXSP,2013-12-08 18:40:00,
2013-12-08 20:45:00,43.0,11.9,30.40,NNE,22,0.0,1.0,28,0.00,,SKC,0.00,WUHU21623XXSP,2013-12-08 18:45:00,
2013-12-08 20:50:00,42.8,11.7,30.40,NNW,337,0.0,0.0,28,0.00,,SKC,0.00,WUHU21623XXSP,2013-12-08 18:50:00,
2013-12-08 20:55:00,42.8,11.7,30.40,ENE,67,0.0,3.4,28,0.00,,SKC,0.00,WUHU21623XXSP,2013-12-08 18:55:00,
2013-12-08 21:01:00,42.6,11.5,30.40,NNW,337,0.0,4.9,28,0.00,,SKC,0.00,WUHU21623XXSP,2013-12-08 19:01:00,
2013-12-08 21:06:00,42.4,11.4,30.40,NNE,22,1.2,4.9,28,0.00,,SKC,0.00,WUHU21623XXSP,2013-12-08 19:06:00,
2013-12-08 21:11:00,42.4,11.4,30.40,NNW,337,1.0,3.0,28,0.00,,SKC,0.00,WUHU21623XXSP,2013-12-08 19:11:00,
2013-12-08 21:16:00,42.4,11.4,30.40,NNW,337,0.0,3.0,28,0.00,,SKC,0.00,WUHU21623XXSP,2013-12-08 19:16:00,
2013-12-08 21:21:00,42.4,11.4,30.40,NE,45,0.0,1.4,28,0.00,,SKC,0.00,WUHU21623XXSP,2013-12-08 19:21:00,
2013-12-08 21:26:00,42.3,11.3,30.41,NE,45,0.0,1.4,28,0.00,,SKC,0.00,WUHU21623XXSP,2013-12-08 19:26:00,
2013-12-08 21:31:00,42.1,11.1,30.41,NE,45,0.0,5.9,28,0.00,,SKC,0.00,WUHU21623XXSP,2013-12-08 19:31:00,
2013-12-08 21:36:00,42.1,11.1,30.41,North,0,2.4,5.9,28,0.00,,SKC,0.00,WUHU21623XXSP,2013-12-08 19:36:00,
2013-12-08 21:41:00,41.9,10.9,30.41,NE,45,0.0,2.4,28,0.00,,SKC,0.00,WUHU21623XXSP,2013-12-08 19:41:00,
2013-12-08 21:45:00,41.9,10.9,30.41,NE,45,0.0,2.4,28,0.00,,SKC,0.00,WUHU21623XXSP,2013-12-08 19:45:00,
2013-12-08 22:46:00,41.2,14.7,30.41,NNE,23,0.0,0.0,34,0.00,,SKC,0.00,WUHU21623XXSP,2013-12-08 20:46:00,
2013-12-08 23:46:00,40.6,20.2,30.42,NNE,23,0.0,0.0,44,0.00,,SKC,0.00,WUHU21623XXSP,2013-12-08 21:46:00,